Location: Potomac
(46.8816°N, 113.5795°W)
Time: 08:04:34
(UTC+00:00)

NANOSAT C BR1 - Pass Details

Date: 27 June 2022
Orbit: 584 x 599 km, 98.0° (Epoch: 09 August)

Event Time Altitude Azimuth Distance (km) Brightness Sun altitude
Rises 08:38:50 0° 29° (NNE) 2,845 ? -18.4°
Reaches altitude 10° 08:41:40 10° 50° (NE) 1,940 ? -18.3°
Maximum altitude 08:44:28 17° 91° (E) 1,522 ? -18.2°
Enters shadow 08:47:02 11° 131° (SE) 1,877 ? -18.1°
